Zurück zum Katalog

STARLINK-5719

AktivKommunikationVLEO
NORAD 55609·PAYLOAD·🇺🇸 United States

Gestartet Feb 12, 2023 von Cape Canaveral Space Force Station

Loading…

Nächste Überflüge (nächste 24 Stunden)

TLE

AktuellSource: CelesTrak SupGP

Epoche: Sep 14, 2026, 22:23 UTC

1 55609C 23020AS  26257.93312500 -.00048144  00000+0 -17435-2 0  2578
2 55609  43.0042   5.5561 0001735 270.4338 348.6122 15.27606786    10

Verfolge STARLINK-5719 in Echtzeit mit AllMySat

Download on the App Store